, AK

(GMT )
Cape Lisburne

Weather History for PALU - October, 2012

Change the Weather History Date:

Monday, October 15, 2012

  Actual Average Record
Temperature  
Mean Temperature 26 °F -  
Max Temperature 28 °F 26 °F 39 °F (2006)
Min Temperature 24 °F 20 °F 12 °F (1999)
Degree Days  
Heating Degree Days 39    
Moisture  
Dew Point 21 °F    
Average Humidity 78    
Maximum Humidity 93    
Minimum Humidity 59    
Precipitation  
Precipitation 0.00 in - - ()
Sea Level Pressure  
Sea Level Pressure 29.63 in    
Wind  
Wind Speed 16 mph (NW)    
Max Wind Speed 18 mph    
Max Gust Speed 23 mph    
Visibility 8 miles    
Events Rain , Snow    
Averages and records for this station are not official NWS values.
T = Trace of Precipitation, MM = Missing Value Source: NWS Daily Summary

Daily Weather History Graph

Daily Weather History Graph

Search for Another Location

Airport or City:

Trip Planner

Search our weather history database for the weather conditions in past years. The results will help you decide how hot, cold, wet, or windy it might be!

Date:

Astronomy

Oct. 15, 2012 Rise Set
Actual Time 10:15 AM AKDT 7:23 PM AKDT
Civil Twilight 9:15 AM AKDT 8:23 PM AKDT
Nautical Twilight 8:08 AM AKDT 9:29 PM AKDT
Astronomical Twilight 6:58 AM AKDT 10:38 PM AKDT
Moon 11:27 AM AKDT (10/15) 6:35 PM AKDT (10/15)
Length of Visible Light 11h 07m
Length of Day
9h 08m
New Moon, 0% of the Moon is Illuminated
Oct 15
New Moon
Oct 21
First Quarter
Oct 29
Full
Nov 6
Last Quarter
Nov 13
New

Hourly Weather History & Observations

Time (AKDT) Temp. Windchill Dew Point Humidity Pressure Visibility Wind Dir Wind Speed Gust Speed Precip Events Conditions
12:10 AM 28.4 °F - 15.8 °F 59% 29.56 in 10.0 mi North - - N/A   Scattered Clouds
12:55 AM 25.3 °F - 23.0 °F 91% 29.58 in 1.2 mi North - - N/A Snow Light Snow
1:15 AM 24.8 °F - 23.0 °F 93% 29.58 in 2.5 mi North - - N/A Snow Snow
1:40 AM 24.8 °F - 19.4 °F 80% 29.57 in 10.0 mi North - - N/A Snow Light Snow
1:55 AM 24.6 °F - 19.8 °F 82% 29.58 in 7.0 mi North - - N/A Snow Light Snow Showers
2:25 AM 26.6 °F - 24.8 °F 93% 29.57 in 6.0 mi North - - N/A Snow Light Snow Showers
2:55 AM 25.9 °F - 18.1 °F 73% 29.58 in 10.0 mi North - - N/A Snow Light Snow Showers
3:10 AM 26.6 °F - 19.4 °F 74% 29.58 in 10.0 mi North - - N/A   Partly Cloudy
3:55 AM 27.3 °F - 22.1 °F 81% 29.57 in 10.0 mi North - - N/A Snow Light Snow Showers
4:15 AM 26.6 °F - 23.0 °F 86% 29.59 in 6.0 mi North - - N/A Snow Light Snow Showers
4:40 AM 26.6 °F - 17.6 °F 69% 29.58 in 10.0 mi North - - N/A Snow Light Snow Showers
4:55 AM 28.4 °F - 16.5 °F 61% 29.58 in 10.0 mi North - - N/A   Mostly Cloudy
5:05 AM 28.4 °F - 21.2 °F 74% 29.58 in 10.0 mi North - - N/A Snow Light Snow Showers
5:32 AM 28.4 °F 17.5 °F 23.0 °F 80% 29.59 in 10.0 mi North 13.8 mph - N/A   Scattered Clouds
5:44 AM 26.6 °F 13.4 °F 21.2 °F 80% 29.59 in 10.0 mi West 18.4 mph - N/A Snow Snow Showers
5:55 AM 28.4 °F 15.8 °F 19.4 °F 69% 29.59 in 10.0 mi West 18.4 mph - N/A Snow Light Snow Showers
6:55 AM 28.4 °F 17.0 °F 21.2 °F 74% 29.60 in 10.0 mi West 15.0 mph - N/A Snow Light Snow Showers
7:34 AM 28.4 °F - 19.4 °F 69% 29.60 in 10.0 mi North - - N/A   Light Freezing Drizzle
7:56 AM 28.4 °F 17.0 °F 23.0 °F 80% 29.60 in 10.0 mi WNW 15.0 mph 23.0 mph N/A Snow Light Snow
8:57 AM 28.4 °F 16.6 °F 23.0 °F 80% 29.62 in 10.0 mi North 16.1 mph - N/A Snow Light Snow Showers
9:23 AM 26.6 °F 13.4 °F 24.8 °F 93% 29.63 in 2.0 mi North 18.4 mph 23.0 mph N/A Snow Light Snow Showers
9:34 AM 26.6 °F 14.7 °F 21.2 °F 80% 29.62 in 9.0 mi NNW 15.0 mph - N/A Snow Light Snow Showers
9:42 AM 28.4 °F - 17.6 °F 64% 29.62 in 10.0 mi North - - N/A   Mostly Cloudy
9:55 AM 28.2 °F - 22.6 °F 80% 29.63 in 5.0 mi North - - N/A Snow Light Snow Showers
10:07 AM 28.4 °F - 23.0 °F 80% 29.63 in 5.0 mi North - - N/A Snow Light Snow Showers
10:32 AM 26.6 °F - 21.2 °F 80% 29.65 in 10.0 mi North - - N/A   Mostly Cloudy
10:55 AM 27.9 °F - 22.1 °F 79% 29.65 in 10.0 mi North - - N/A   Scattered Clouds
11:37 AM 28.4 °F - 24.8 °F 86% 29.66 in 10.0 mi North - - N/A   Mostly Cloudy
11:55 AM 28.2 °F - 24.6 °F 86% 29.66 in 7.0 mi North - - N/A Snow Light Snow
12:22 PM 26.6 °F - 23.0 °F 86% 29.67 in 2.5 mi North - - N/A Snow Light Snow
12:47 PM 28.4 °F - 23.0 °F 80% 29.68 in 9.0 mi North - - N/A Snow Light Snow Showers
12:55 PM 28.4 °F - 22.5 °F 78% 29.67 in 10.0 mi North - - N/A Snow Light Snow Showers
1:32 PM 28.4 °F - 17.6 °F 64% 29.67 in 10.0 mi North - - N/A   Mostly Cloudy
1:55 PM 28.9 °F - 16.9 °F 61% 29.68 in 10.0 mi North - - N/A   Mostly Cloudy
2:55 PM 28.4 °F - 20.1 °F 71% 29.69 in 10.0 mi North - - N/A Snow Light Snow Showers
3:17 PM 28.4 °F - 21.2 °F 74% 29.69 in 10.0 mi North - - N/A   Mostly Cloudy
3:42 PM 28.4 °F - 21.2 °F 74% 29.70 in 9.0 mi North - - N/A Rain Light Freezing Rain
3:55 PM 28.8 °F - 22.6 °F 78% 29.69 in 10.0 mi North - - N/A Snow Light Snow
4:07 PM 26.6 °F - 24.8 °F 93% 29.70 in 0.8 mi North - - N/A Snow Light Snow
4:32 PM 28.4 °F - 24.8 °F 86% 29.70 in 9.0 mi North - - N/A   Mostly Cloudy
4:55 PM 28.2 °F - 21.7 °F 77% 29.70 in 10.0 mi North - - N/A Snow Light Snow Showers
4:57 PM 28.4 °F - 23.0 °F 80% 29.70 in 10.0 mi North - - N/A   Mostly Cloudy